CAPE
111 247 668 613 727 1278 1149 897 823 846 753 798 827 774 756 521 263 213 134 62 95 0 5 0 0 0 0 0 0 0 0 0 0 1 0 0 0 43 31 1 0 0 1
327 646 1142 1245 1445 1588 1207 907 759 738 834 918 926 829 656 510 162 77 62 53 60 0 0 0 0 0 0 0 0 0 0 0 0 2 1 1 0 12 8 1 2 1 0
1045 1240 1401 1516 1786 1774 1320 1042 838 951 921 782 675 558 464 287 87 5 31 44 6 0 0 0 0 0 0 0 10 24 0 0 0 0 1 1 1 1 1 1 0 1 1
1568 1555 1571 1297 1163 1113 1279 1286 1091 831 724 502 442 414 333 152 59 85 16 0 0 0 0 0 0 0 0 7 22 38 1 0 0 0 0 0 0 1 0 0 0 1 1
1553 1295 1006 837 755 697 435 475 494 725 658 503 219 197 290 191 45 2 3 4 1 0 0 0 0 0 6 9 35 47 1 0 0 0 1 0 0 0 0 0 0 0 0
1295 1026 933 792 801 629 336 117 82 61 21 0 0 0 0 0 1 18 27 5 0 0 0 0 0 0 0 0 0 5 0 0 0 0 0 1 0 0 1 0 0 0 0
1064 1071 882 717 704 450 104 29 0 0 0 0 0 0 0 0 0 0 4 0 0 0 0 0 0 0 0 0 1 1 0 0 0 0 0 0 0 0 0 1 0 0 0
1051 951 768 552 307 125 4 0 0 0 0 0 0 0 0 0 0 1 1 0 0 0 0 0 0 0 2 0 0 1 0 0 0 0 0 0 0 0 0 0 0 1 0
793 681 486 278 116 0 0 0 0 0 1 0 0 0 0 1 0 0 0 0 0 0 0 0 0 0 1 1 0 0 0 0 0 0 0 0 0 0 0 0 0 1 0
521 399 231 119 12 0 0 0 5 3 5 0 0 0 0 1 1 1 0 0 1 1 1 0 2 0 1 0 0 1 1 0 0 0 0 0 0 0 0 0 0 0 0
269 194 124 53 0 0 0 2 0 1 2 0 0 0 0 0 1 1 0 0 0 1 0 0 0 1 1 0 0 0 0 0 0 0 1 0 0 0 0 0 0 0 0
163 148 73 0 4 0 0 0 0 0 0 0 0 1 1 0 1 1 1 0 0 0 0 0 1 1 1 1 0 0 0 0 0 1 1 1 1 1 0 0 0 0 0
253 172 22 18 0 0 0 0 0 0 0 0 0 1 0 2 1 1 1 0 0 0 0 0 1 1 1 1 1 0 0 0 1 1 1 1 0 0 0 0 0 0 0
139 59 75 1 0 0 0 0 0 0 0 0 0 1 1 0 0 1 0 1 1 1 1 1 0 0 1 0 0 0 0 0 0 1 1 0 0 0 0 0 0 0 0
147 43 12 0 0 1 0 1 0 0 0 0 0 0 0 1 0 0 0 0 0 0 0 0 1 0 1 1 1 0 0 0 0 0 0 0 0 0 0 0 0 0 0
150 39 2 0 0 0 0 0 1 1 1 1 0 0 0 0 0 0 0 0 1 0 0 0 0 1 1 1 1 1 0 0 0 0 0 0 0 0 0 0 0 0 0
120 5 0 0 0 0 0 0 0 1 1 1 1 0 0 0 0 2 2 2 2 0 0 0 0 1 1 2 0 0 0 0 0 0 0 0 0 0 0 0 0 0 0
62 2 0 0 0 0 0 0 0 0 0 1 0 0 0 1 1 1 2 0 0 0 0 0 0 1 1 0 0 0 0 0 0 0 0 0 0 0 0 0 0 0 0
8 8 19 0 0 0 0 0 0 0 1 1 1 0 0 1 1 1 1 0 0 0 0 1 0 1 0 0 0 1 0 0 0 0 0 0 0 0 0 0 0 0 0
10 11 17 2 0 0 0 0 0 0 1 1 0 0 0 0 0 0 0 0 0 0 0 0 0 0 0 0 0 0 0 0 0 0 0 0 0 0 0 0 0 0 0
5 0 26 3 19 2 0 0 0 0 0 1 1 0 0 0 0 0 0 0 0 0 0 0 0 0 0 0 0 0 0 0 0 0 0 0 0 0 0 0 0 0 0
20 37 7 14 11 8 0 0 0 0 0 0 0 0 1 0 0 0 0 0 0 0 0 0 0 0 0 0 0 0 0 0 0 0 0 1 0 0 0 0 0 0 0
0 24 66 15 18 0 18 0 0 0 0 0 0 0 0 0 0 0 0 1 1 0 0 0 0 0 0 0 0 0 0 0 0 0 2 3 26 14 3 0 0 0 0
20 21 2 34 11 197 15 17 0 0 0 0 0 0 0 0 0 0 0 1 1 0 0 0 0 0 0 0 0 0 0 0 0 0 0 5 22 23 25 39 13 12 0
0 3 12 27 47 89 0 0 0 0 0 0 0 0 0 0 0 0 0 0 0 0 0 0 0 0 0 0 0 0 0 0 0 0 0 0 0 0 0 0 0 0 0
0 0 0 0 13 10 1 0 0 0 0 0 0 0 0 0 0 0 0 0 0 0 0 0 0 0 0 0 0 0 0 0 0 0 0 0 0 0 0 0 0 0 0
CIN
-612 -547 -442 -434 -349 -226 -231 -299 -278 -262 -263 -229 -202 -184 -180 -233 -266 -242 -232 -258 -187 0 -315 0 0 0 0 0 0 0 0 0 0 0 0 0 0 -20 -61 0 0 0 0
-515 -436 -328 -276 -197 -149 -192 -252 -284 -280 -226 -174 -140 -136 -169 -184 -266 -249 -232 -234 -209 0 -1 0 0 0 0 0 0 0 0 0 0 -51 0 0 -3 -44 -44 0 0 0 0
-331 -283 -223 -185 -117 -102 -133 -199 -245 -200 -170 -172 -168 -173 -171 -196 -229 -126 -250 -221 -169 0 0 0 0 0 0 0 -100 -85 -100 0 0 0 0 0 0 0 0 0 0 0 0
-225 -196 -170 -163 -156 -174 -135 -141 -176 -186 -178 -213 -197 -168 -162 -192 -191 -159 -257 0 0 0 0 0 0 0 0 -114 -84 -67 -125 0 0 0 0 0 0 0 0 -25 0 0 0
-182 -195 -173 -199 -212 -254 -344 -307 -272 -166 -152 -168 -238 -200 -119 -136 -188 -74 -74 -78 -60 0 0 0 0 0 -128 -112 -67 -53 -84 0 0 0 0 0 0 0 0 0 0 0 0
-162 -159 -163 -176 -176 -217 -292 -390 -391 -356 -366 0 0 0 0 0 -25 -137 -195 -142 0 0 0 0 0 0 0 0 0 -50 0 0 0 0 0 0 0 0 0 0 0 -1 0
-136 -102 -120 -162 -151 -216 -357 -270 0 0 0 0 0 0 0 0 0 -79 -148 0 0 0 0 0 0 -16 -37 0 0 0 0 0 0 0 0 0 0 0 0 0 0 0 0
-109 -77 -102 -160 -208 -271 -171 0 0 0 0 0 0 0 0 0 0 0 0 0 0 0 0 0 0 -76 -45 0 0 0 0 0 0 0 0 0 0 0 0 0 0 0 0
-102 -111 -156 -208 -249 0 0 0 0 0 -79 0 0 0 0 0 0 0 0 0 0 0 0 0 0 0 0 -164 0 0 0 0 0 0 0 0 0 0 0 0 0 0 0
-115 -154 -193 -220 -286 0 0 0 -119 -141 -146 0 0 0 0 0 0 0 0 0 0 0 0 0 0 0 0 0 0 0 0 0 0 0 0 0 0 0 0 0 0 -7 0
-124 -160 -178 -233 0 0 0 -48 0 -85 -128 0 0 0 0 0 0 0 0 0 0 0 0 0 0 0 0 0 0 0 0 0 0 0 0 0 0 0 0 0 0 0 0
-143 -153 -204 -15 -240 0 0 0 0 0 0 0 0 0 0 0 0 0 0 0 0 0 0 0 0 0 0 0 0 0 0 0 0 0 0 0 0 0 0 0 0 0 0
-124 -179 -266 -212 0 0 0 0 0 0 0 0 0 0 0 0 0 0 0 0 0 0 0 0 0 0 0 0 0 0 0 0 0 0 0 0 0 0 0 0 0 0 0
-202 -217 -179 -26 0 0 0 0 0 0 0 0 0 -3 0 0 0 0 0 0 0 0 0 0 0 0 0 0 0 0 0 0 0 0 0 0 0 0 0 0 0 0 0
-158 -186 -142 0 0 0 0 0 0 0 0 0 0 0 0 0 0 0 0 0 0 0 0 0 0 0 0 0 0 0 0 0 0 0 0 0 0 0 0 0 0 0 0
-153 -159 -63 0 0 0 0 0 0 0 0 0 0 0 0 0 0 0 0 0 0 0 0 0 0 0 0 0 0 0 0 0 0 0 0 0 0 0 0 0 0 0 0
-164 -127 0 0 0 0 0 0 0 0 0 0 0 0 0 0 0 0 0 0 0 0 0 0 0 0 0 -27 0 0 0 0 0 0 0 0 0 0 0 0 0 0 0
-178 -105 0 0 0 0 0 0 0 0 0 0 0 0 0 0 0 0 0 0 0 0 0 0 0 0 0 0 0 -34 0 0 0 0 0 0 0 0 0 0 0 0 0
-209 -171 -137 -13 0 0 0 0 0 0 0 0 0 0 0 0 0 0 0 0 0 0 0 0 0 0 0 0 0 -31 -16 0 0 0 -3 -10 0 0 0 0 0 0 0
-180 -167 -189 -24 -17 0 0 0 0 0 0 0 0 0 0 0 0 0 0 0 0 0 0 0 0 0 0 0 0 0 -1 0 0 -18 0 0 0 0 0 0 0 0 0
-193 -3 -179 -194 -135 -158 0 0 0 0 0 0 0 0 0 0 0 0 0 0 0 0 0 0 0 0 0 0 0 0 0 0 0 -27 -27 0 0 0 0 0 0 0 0
-155 -141 -130 -140 -151 -142 0 0 0 0 0 0 0 0 0 0 0 0 0 0 -2 0 0 0 0 0 0 0 0 0 0 0 0 0 -42 -21 0 0 0 0 0 0 0
0 -179 -115 -150 -153 0 -147 0 0 0 0 0 0 0 0 0 0 0 -13 -9 0 0 0 0 0 0 0 0 0 0 0 0 0 0 -48 -72 -58 -77 -85 0 0 0 0
-180 -157 -146 -170 -219 -119 -165 -137 0 0 0 0 0 0 0 0 0 0 0 0 0 0 0 0 0 0 0 0 0 0 0 0 0 0 0 -93 -84 -78 -95 -63 -67 -47 0
0 -295 -286 -225 -181 -180 -9 0 0 0 0 0 0 0 0 0 0 0 0 0 0 0 0 0 0 0 0 0 0 0 0 0 0 0 0 0 0 0 0 0 0 0 0
0 0 0 0 -313 -271 -56 0 0 0 0 0 0 0 0 0 0 0 0 0 0 0 0 0 0 0 0 0 0 0 0 0 0 0 0 0 0 0 0 0 0 0 0
Wind_Speed
11 10 9 8 9 9 9 10 11 11 9 10 9 8 9 9 8 7 6 6 6 6 4 6 6 5 4 3 3 3 3 3 3 1 1 3 2 4 4 5 4 4 3
9 10 9 9 9 10 10 11 11 11 9 10 10 9 10 10 7 7 7 6 7 7 6 6 6 4 4 4 3 5 4 3 4 7 2 2 3 4 5 6 3 4 3
10 11 9 9 10 11 10 12 11 12 11 10 10 11 10 9 8 7 7 7 6 7 6 6 6 5 4 3 3 4 2 3 3 6 3 2 3 3 5 6 4 5 4
10 9 9 9 10 11 12 13 12 11 12 11 11 10 9 8 7 7 7 6 7 6 6 6 6 6 6 5 4 5 4 5 5 7 4 3 3 3 4 5 5 5 4
11 11 9 10 10 12 12 11 11 12 12 12 8 7 7 8 6 7 7 7 7 6 5 5 5 6 6 3 3 4 7 5 7 8 4 3 2 3 6 3 4 5 5
11 12 13 13 13 13 12 9 10 9 8 8 7 8 7 4 6 11 9 7 6 7 6 5 4 4 4 4 5 8 11 10 8 6 4 6 5 3 4 8 6 4 3
13 14 14 14 13 12 12 10 9 9 9 8 8 8 7 6 7 9 9 6 7 6 6 5 4 3 5 5 5 4 6 3 8 10 11 10 6 5 7 8 5 4 3
14 15 15 16 13 12 11 10 8 7 9 8 8 7 8 5 7 9 10 6 5 5 5 5 5 4 4 5 5 6 7 5 5 4 7 6 7 7 8 7 7 6 6
14 16 15 15 14 11 10 9 7 10 9 7 7 8 8 5 6 6 8 6 6 5 4 4 4 4 3 10 9 10 8 5 5 12 11 13 12 13 9 9 7 9 4
15 16 14 13 13 11 10 9 6 9 9 9 7 6 8 6 4 3 4 5 6 4 4 3 4 4 8 10 9 10 10 6 7 7 7 9 9 10 10 5 11 8 5
16 15 12 12 11 11 9 9 8 9 10 9 8 5 6 7 4 1 9 5 6 5 3 3 1 4 7 10 10 9 9 9 9 8 7 7 7 8 4 5 3 9 6
15 14 12 10 9 9 12 7 9 10 10 9 9 6 4 5 5 5 6 7 8 5 5 3 3 4 10 11 8 12 14 10 6 6 6 6 7 6 5 5 5 5 2
15 12 10 9 9 10 11 9 8 9 9 9 8 6 5 3 3 5 6 10 10 4 4 5 7 9 11 10 15 15 10 7 6 6 5 3 4 5 5 5 4 5 3
14 13 10 11 9 8 7 7 8 7 7 7 8 6 5 4 3 3 4 5 9 7 7 5 7 8 8 10 8 6 5 7 6 5 4 4 4 4 4 2 3 3 3
15 12 9 8 9 7 7 3 6 3 6 9 5 7 7 6 4 6 7 5 5 6 7 3 4 5 8 6 6 6 5 6 6 5 6 5 4 3 2 2 2 2 3
13 10 9 8 7 7 7 6 14 9 4 2 8 9 2 6 13 11 10 11 12 12 3 5 5 6 6 6 6 5 5 6 5 6 5 6 5 4 3 2 2 3 3
15 12 9 9 8 8 8 8 8 6 14 14 4 8 9 10 14 12 12 12 8 6 4 5 5 6 5 5 6 5 5 4 6 6 6 5 5 4 4 3 2 2 2
16 16 11 9 8 7 6 6 6 7 6 4 12 7 9 14 14 15 14 9 4 3 4 5 5 5 5 5 4 3 4 4 4 5 5 4 4 5 3 4 4 2 2
11 10 9 8 8 8 7 6 6 7 8 6 6 7 9 13 11 12 8 4 4 4 4 5 5 5 5 3 4 4 5 5 4 4 4 4 4 4 4 4 4 4 4
10 13 10 8 8 8 8 7 7 8 8 7 7 6 5 5 6 6 3 3 4 4 4 5 5 5 5 5 4 4 4 4 4 4 4 5 4 5 5 6 5 6 7
8 7 10 8 8 8 8 8 8 8 8 7 7 5 8 9 8 6 3 3 3 4 4 4 4 4 4 4 4 4 4 4 4 4 4 4 4 4 5 5 6 5 4
9 9 8 9 8 9 9 8 8 8 9 9 8 6 5 3 4 3 3 2 3 3 4 5 4 4 4 4 4 4 4 5 4 4 5 4 5 5 4 5 4 4 4
8 8 8 7 8 9 9 8 8 7 7 7 8 7 3 4 4 3 3 5 7 6 5 5 5 5 4 4 3 1 5 5 3 4 5 4 5 5 5 5 6 5 5
7 10 9 9 9 9 8 9 8 9 9 9 8 7 4 4 8 8 7 7 8 8 7 8 8 8 6 6 5 4 4 3 2 3 4 5 5 4 3 4 4 3 1
7 6 7 8 10 10 10 11 10 11 10 9 8 7 7 8 9 9 8 8 8 9 10 8 8 11 13 13 11 11 8 7 2 3 6 9 10 10 8 8 8 7 7
9 9 7 6 9 11 11 11 10 10 10 10 9 9 9 10 10 10 9 9 9 9 11 9 12 16 15 12 13 12 12 12 11 11 8 9 9 8 8 8 11 7 7
Wind_Direction
175 176 168 170 162 150 158 159 163 153 151 158 154 144 143 143 143 135 148 152 166 170 166 173 189 178 187 202 187 173 170 143 129 124 102 52 89 119 78 83 86 86 99
170 161 164 159 148 157 161 158 153 150 150 148 146 145 146 149 144 148 158 167 169 175 183 177 191 176 185 201 199 202 179 173 131 143 95 80 60 100 96 97 82 76 105
159 152 157 155 158 163 157 150 148 145 144 146 141 144 149 155 159 166 168 165 167 170 177 182 185 171 186 205 188 186 161 132 132 138 115 78 72 109 98 75 67 63 63
143 142 141 144 152 150 146 145 146 145 144 143 145 153 158 159 168 171 155 166 166 175 177 178 171 177 185 199 208 160 139 113 121 137 114 90 85 72 96 116 77 56 72
134 122 130 130 125 127 124 126 141 146 149 149 149 151 150 165 175 150 157 163 154 144 156 172 178 180 167 170 190 158 132 141 144 151 129 106 113 144 138 111 102 107 54
128 133 134 136 129 121 120 115 113 127 132 124 134 137 131 118 143 151 139 138 143 153 163 168 167 181 183 161 151 160 163 159 155 150 147 162 151 118 129 143 138 133 118
135 140 141 134 132 136 128 134 128 128 127 129 117 119 111 108 105 118 129 138 151 158 155 166 178 193 192 169 161 179 163 193 167 159 165 177 155 154 142 140 134 107 112
142 143 144 133 134 134 130 130 121 127 129 125 116 107 117 103 124 126 150 142 132 149 166 174 181 187 196 160 146 146 134 131 142 136 156 133 122 142 151 134 108 97 94
148 142 134 132 134 136 130 128 124 123 123 119 120 129 117 131 135 141 142 126 129 144 153 158 168 150 167 143 134 127 118 89 53 115 120 121 131 129 133 128 137 140 123
140 135 135 137 140 136 131 131 124 125 128 123 121 119 134 139 129 152 154 126 128 140 125 117 47 153 158 157 139 141 134 135 123 113 106 105 123 129 145 172 149 153 127
136 133 142 143 138 134 124 128 124 120 119 118 116 117 123 134 114 107 169 142 143 149 144 153 163 158 162 157 142 150 146 136 130 126 126 127 128 143 139 134 140 154 150
132 143 144 138 140 135 129 120 124 127 124 124 122 116 103 117 64 58 166 139 139 148 159 161 152 169 154 143 125 127 123 122 127 128 131 137 146 152 149 148 132 131 119
136 134 130 127 127 133 128 130 125 129 134 139 139 136 127 117 92 57 104 141 131 112 129 114 112 124 121 99 125 130 124 123 129 134 134 131 144 138 127 121 130 143 133
130 131 128 126 124 119 126 134 135 141 140 142 146 143 138 143 143 130 106 101 97 87 101 108 112 101 92 117 126 126 134 140 138 134 121 104 101 131 142 135 140 148 141
130 127 124 123 117 98 71 68 140 107 148 155 159 146 151 166 194 163 147 140 135 136 124 122 110 115 130 135 127 117 122 129 138 140 140 136 145 132 127 132 113 137 169
129 131 135 131 128 127 128 101 43 50 58 142 158 155 110 141 146 149 134 127 131 146 122 128 123 133 137 132 137 133 139 144 149 145 148 157 162 163 146 144 132 159 189
139 140 140 141 144 145 147 138 126 62 71 56 148 153 133 153 143 133 130 125 130 134 121 125 135 144 141 143 146 156 156 155 146 151 154 158 151 158 157 171 175 153 187
147 143 148 152 147 140 138 133 135 143 131 93 41 67 104 129 129 128 126 110 106 82 127 137 143 149 155 152 146 132 130 143 153 146 152 158 157 153 169 184 198 178 173
146 145 149 140 139 130 127 118 110 102 104 107 114 73 67 84 106 130 148 137 140 147 146 145 147 150 146 130 139 142 146 153 155 157 161 164 175 160 173 190 178 206 200
147 143 139 132 135 133 136 127 115 117 124 125 123 124 129 118 139 163 178 159 157 160 155 150 155 151 151 149 137 134 133 148 160 167 177 177 181 172 182 198 190 207 221
146 144 132 127 147 144 140 139 133 135 141 135 135 146 151 148 160 172 168 180 158 147 152 142 150 150 158 160 145 151 166 180 187 188 183 190 187 202 198 198 212 211 216
153 154 151 157 145 142 138 141 139 139 141 143 148 156 129 117 141 127 121 101 93 92 140 149 148 150 152 167 175 182 187 194 198 204 214 206 197 204 200 206 212 215 216
150 154 161 139 141 130 133 135 133 132 130 122 133 133 121 118 123 124 104 73 63 54 37 54 79 72 45 50 31 158 200 211 193 213 221 225 217 213 202 204 214 227 237
139 148 137 142 141 137 128 128 118 114 124 126 119 130 127 100 102 87 81 78 75 68 59 60 60 59 52 44 35 28 17 349 301 246 224 204 206 203 209 210 205 211 198
85 70 108 136 138 121 123 128 131 131 130 126 120 113 100 95 95 92 86 83 81 73 68 68 64 64 60 56 49 38 14 4 1 49 73 78 73 66 57 66 71 58 46
65 74 78 87 109 120 126 128 129 126 116 112 103 94 99 98 92 91 89 88 85 79 80 72 70 66 64 57 53 42 38 39 47 40 56 69 79 65 65 65 71 70 63